Weather Roundup
Issued by NWS

Home | Current Version | Previous Version | Text Only | Print | Product List | Glossary On
Versions: 1 2 3 4 5 6 7 8 9 10 11 12 13 14 15 16 17 18 19 20 21 22 23 24 25 26 27 28 29 30 31 32 33 34 35 36 37 38 39 40 41 42 43 44 45 46 47 48 49 50
411
NZUS93 KARX 281210
HRRWXR

CURRENT HOURLY OBSERVATIONS ACROSS
MUCH OF THE UPPER MISSISSIPPI VALLEY
NATIONAL WEATHER SERVICE LA CROSSE WI
700 AM CDT WED JUN 28 2017


...SOUTHEAST MINNESOTA...


CITY           SKY/WX    TMP DP  RH WIND       PRES   REMARKS
ROCHESTER      CLOUDY    61  60  97 SE12G22   29.72F
ROCHESTER/MAYO CLOUDY    62  62 100 SE14G23   29.71F
WINONA         TSTM      61  59  94 S3        29.74F
AUSTIN         CLOUDY    63  59  88 SE16      29.67F
ALBERT LEA     CLOUDY    63  61  94 SE12G17   29.65F
DODGE CENTER   CLOUDY    63  59  88 SE20      29.68F
PRESTON        CLOUDY    62  59  92 SE15G23   29.75F
OWATONNA       CLOUDY    64  61  88 SE18G29   29.64F
FARIBAULT      CLOUDY    66  63  88 S5G22     29.66R
$$

...ELSEWHERE IN MINNESOTA...


CITY           SKY/WX    TMP DP  RH WIND       PRES   REMARKS
MINNEAPOLIS    LGT RAIN  63  60  90 S16G22    29.64R
INTNL FALLS    CLOUDY    56  48  74 SE6       29.66F
DULUTH         CLOUDY    57  49  74 E8        29.69F
RED WING       LGT RAIN  63  57  82 SE7       29.67F
REDWOOD FALLS  CLOUDY    65  63  93 S9        29.57R
MANKATO        CLOUDY    65  62  90 SE10      29.64R
WORTHINGTON    PTSUNNY   66  63  90 S17G24    29.63R
FAIRMONT       CLOUDY    66  64  94 SW17G23   29.64R
$$

...SOUTHWEST WISCONSIN...


CITY           SKY/WX    TMP DP  RH WIND       PRES   REMARKS
LA CROSSE      CLOUDY    70  56  61 S15G24    29.78R
PRAIRIE DU CHI HVY RAIN  61  59  91 S7        29.85R
BOSCOBEL       TSTM      62  58  86 S5        29.85R FOG
LONE ROCK      CLOUDY    66  53  63 S6        29.86R
PLATTEVILLE    CLOUDY    62  59  91 SW12      29.90R
FORT MC COY    CLOUDY    64  52  65 S7        29.80S
CAMP DOUGLAS   CLOUDY    61  52  72 SE10      29.80S
MAUSTON-NEW LI CLOUDY    63  52  67 S8        29.81S
VIROQUA        CLOUDY    62  55  77 S8        29.83R
WIS DELLS      CLOUDY    62  49  63 S14       29.86R
$$

...ELSEWHERE IN WISCONSIN...


CITY           SKY/WX    TMP DP  RH WIND       PRES   REMARKS
MILWAUKEE      CLOUDY    63  50  62 S10       29.95F
MADISON        CLOUDY    63  50  62 S12       29.89R
GREEN BAY      CLOUDY    61  52  72 S9        29.88F
EAU CLAIRE     CLOUDY    63  49  60 SE12      29.72F
BLACK RVR FLS  PTSUNNY   64  50  61 S5        29.79R
MEDFORD        CLOUDY    56  48  74 SE10      29.79S
WAUSAU           N/A    N/A N/A N/A MISG      29.82F
WIS RAPIDS     CLOUDY    62  50  64 S8        29.83R
MARSHFIELD     CLOUDY    58  49  72 S10       29.81R
RICE LAKE      CLOUDY    60  49  66 SE9       29.73F
$$

...NORTHEAST IOWA...


CITY           SKY/WX    TMP DP  RH WIND       PRES   REMARKS
WATERLOO       CLOUDY    67  61  81 SE13      29.75R
DUBUQUE        LGT RAIN  62  58  86 SW10      29.90R
DECORAH        CLOUDY    64  63  94 SE8G16    29.78F
MASON CITY     LGT RAIN  68  64  87 SW15G26   29.68F
CHARLES CITY   CLOUDY    63  63 100 SE14      29.74R
OELWEIN        CLOUDY    66  64  94 S20       29.80F
$$

...ELSEWHERE IN IOWA...


CITY           SKY/WX    TMP DP  RH WIND       PRES   REMARKS
DES MOINES     LGT RAIN  68  65  90 SW12      29.77F
IOWA CITY      HVY RAIN  66  63  90 S7        29.89R FOG
FORT DODGE     CLOUDY    66  63  88 SW7       29.71R
MARSHALLTOWN   CLOUDY    68  65  90 SW18G26   29.74R
CEDAR RAPIDS   RAIN      64  64 100 SE10      29.84S FOG
$$

...NORTHERN ILLINOIS...


CITY           SKY/WX    TMP DP  RH WIND       PRES   REMARKS
CHICAGO-OHARE  CLOUDY    65  48  54 S12       29.97F
CHICAGO-MIDWAY CLOUDY    66  48  52 S13       29.98F
MOLINE         LGT RAIN  67  58  72 SW8       29.90R
ROCKFORD       CLOUDY    64  51  62 S15       29.94S
PEORIA         CLOUDY    63  54  72 S15       29.97R
$$

NOTE: "FAIR" INDICATES FEW OR NO CLOUDS BELOW 12,000 FEET WITH NO
SIGNIFICANT WEATHER AND/OR OBSTRUCTIONS TO VISIBILITY. WIND
SPEEDS ARE IN MILES-PER-HOUR.




USA.gov is the U.S. government's official web portal to all federal, state and local government web resources and services.